"Period start","avg(HW err(1)/warn(2) (#))","avg(Visibility (m))","avg(Weather code (#))","avg(Precip intensity (mm/h))","min(HW err(1)/warn(2) (#))","max(HW err(1)/warn(2) (#))","std(HW err(1)/warn(2) (#))","med(HW err(1)/warn(2) (#))","min(Visibility (m))","max(Visibility (m))","std(Visibility (m))","med(Visibility (m))","min(Weather code (#))","max(Weather code (#))","std(Weather code (#))","med(Weather code (#))","min(Precip intensity (mm/h))","max(Precip intensity (mm/h))","std(Precip intensity (mm/h))","med(Precip intensity (mm/h))"
2014-09-13 00:00:00,2,44227,0,0.00,2,2,0,2,34553,50000,6110,45644,0,0,0,0,0.00,0.00,0.00,0.00
2014-09-13 00:10:00,2,46347,0,0.00,2,2,0,2,41538,50000,3369,46848,0,0,0,0,0.00,0.00,0.00,0.00
2014-09-13 00:20:00,2,39740,0,0.00,2,2,0,2,26546,50000,7435,40614,0,0,0,0,0.00,0.00,0.00,0.00
2014-09-13 00:30:00,2,43298,0,0.00,2,2,0,2,32329,50000,4974,43832,0,0,0,0,0.00,0.00,0.00,0.00
2014-09-13 00:40:00,2,39234,0,0.00,2,2,0,2,24124,50000,8488,38714,0,0,0,0,0.00,0.00,0.00,0.00
2014-09-13 00:50:00,2,47662,0,0.00,2,2,0,2,36268,50000,4590,50000,0,0,0,0,0.00,0.00,0.00,0.00
2014-09-13 01:00:00,2,46379,0,0.00,2,2,0,2,37797,50000,4267,48452,0,0,0,0,0.00,0.00,0.00,0.00
2014-09-13 01:10:00,2,47266,0,0.00,2,2,0,2,37049,50000,4423,50000,0,0,0,0,0.00,0.00,0.00,0.00
2014-09-13 01:20:00,2,46279,0,0.00,2,2,0,2,38263,50000,4124,48536,0,0,0,0,0.00,0.00,0.00,0.00
2014-09-13 01:30:00,2,49858,0,0.00,2,2,0,2,48580,50000,426,50000,0,0,0,0,0.00,0.00,0.00,0.00
2014-09-13 01:40:00,2,48991,0,0.00,2,2,0,2,46958,50000,1121,49294,0,0,0,0,0.00,0.00,0.00,0.00
2014-09-13 01:50:00,2,50000,0,0.00,2,2,0,2,50000,50000,0,50000,0,0,0,0,0.00,0.00,0.00,0.00
2014-09-13 02:00:00,2,35989,28,0.10,2,2,0,2,14727,50000,13993,38778,0,61,28,26,0.00,0.70,0.21,0.00
2014-09-13 02:10:00,2,49456,0,0.00,2,2,0,2,44986,50000,1495,50000,0,0,0,0,0.00,0.00,0.00,0.00
2014-09-13 02:20:00,2,45736,0,0.00,2,2,0,2,37457,50000,4893,47793,0,0,0,0,0.00,0.00,0.00,0.00
2014-09-13 02:30:00,2,48578,0,0.00,2,2,0,2,43014,50000,2118,49574,0,0,0,0,0.00,0.00,0.00,0.00
2014-09-13 02:40:00,2,45774,0,0.00,2,2,0,2,35976,50000,5330,50000,0,0,0,0,0.00,0.00,0.00,0.00
2014-09-13 02:50:00,2,45579,0,0.00,2,2,0,2,28432,50000,6286,47434,0,0,0,0,0.00,0.00,0.00,0.00
2014-09-13 03:00:00,2,48313,0,0.00,2,2,0,2,41841,50000,2825,50000,0,0,0,0,0.00,0.00,0.00,0.00
2014-09-13 03:10:00,2,49441,0,0.00,2,2,0,2,45856,50000,1271,50000,0,0,0,0,0.00,0.00,0.00,0.00
2014-09-13 03:20:00,2,49980,0,0.00,2,2,0,2,49800,50000,60,50000,0,0,0,0,0.00,0.00,0.00,0.00
2014-09-13 03:30:00,2,49176,0,0.00,2,2,0,2,45863,50000,1648,50000,0,0,0,0,0.00,0.00,0.00,0.00
2014-09-13 03:40:00,2,45822,0,0.00,2,2,0,2,33809,50000,5409,48982,0,0,0,0,0.00,0.00,0.00,0.00
2014-09-13 03:50:00,2,48616,0,0.00,2,2,0,2,43257,50000,2386,50000,0,0,0,0,0.00,0.00,0.00,0.00
2014-09-13 04:00:00,2,49944,0,0.00,2,2,0,2,49437,50000,169,50000,0,0,0,0,0.00,0.00,0.00,0.00
2014-09-13 04:10:00,2,48888,0,0.00,2,2,0,2,43809,50000,2009,50000,0,0,0,0,0.00,0.00,0.00,0.00
2014-09-13 04:20:00,2,49634,0,0.00,2,2,0,2,47854,50000,746,50000,0,0,0,0,0.00,0.00,0.00,0.00
2014-09-13 04:30:00,2,49551,0,0.00,2,2,0,2,47497,50000,846,50000,0,0,0,0,0.00,0.00,0.00,0.00
2014-09-13 04:40:00,2,50000,0,0.00,2,2,0,2,50000,50000,0,50000,0,0,0,0,0.00,0.00,0.00,0.00
2014-09-13 04:50:00,2,50000,0,0.00,2,2,0,2,50000,50000,0,50000,0,0,0,0,0.00,0.00,0.00,0.00
2014-09-13 05:00:00,2,50000,0,0.00,0,2,1,2,50000,50000,0,50000,0,0,0,0,0.00,0.00,0.00,0.00
2014-09-13 05:10:00,1,50000,0,0.00,0,2,1,2,50000,50000,0,50000,0,0,0,0,0.00,0.00,0.00,0.00
2014-09-13 05:20:00,1,49939,0,0.00,0,2,1,2,49392,50000,182,50000,0,0,0,0,0.00,0.00,0.00,0.00
2014-09-13 05:30:00,2,50000,0,0.00,2,2,0,2,50000,50000,0,50000,0,0,0,0,0.00,0.00,0.00,0.00
2014-09-13 05:40:00,1,50000,0,0.00,0,2,1,2,50000,50000,0,50000,0,0,0,0,0.00,0.00,0.00,0.00
2014-09-13 05:50:00,0,49519,0,0.00,0,0,0,0,45194,50000,1442,50000,0,0,0,0,0.00,0.00,0.00,0.00
2014-09-13 06:00:00,0,49916,0,0.00,0,0,0,0,49161,50000,252,50000,0,0,0,0,0.00,0.00,0.00,0.00
2014-09-13 06:10:00,0,49778,0,0.00,0,0,0,0,47785,50000,664,50000,0,0,0,0,0.00,0.00,0.00,0.00
2014-09-13 06:20:00,0,50000,0,0.00,0,0,0,0,50000,50000,0,50000,0,0,0,0,0.00,0.00,0.00,0.00
2014-09-13 06:30:00,0,49145,0,0.00,0,0,0,0,45829,50000,1605,50000,0,0,0,0,0.00,0.00,0.00,0.00
2014-09-13 06:40:00,1,50000,0,0.00,0,2,1,0,50000,50000,0,50000,0,0,0,0,0.00,0.00,0.00,0.00
2014-09-13 06:50:00,2,50000,0,0.00,2,2,0,2,50000,50000,0,50000,0,0,0,0,0.00,0.00,0.00,0.00
2014-09-13 07:00:00,2,49915,0,0.00,2,2,0,2,49154,50000,254,50000,0,0,0,0,0.00,0.00,0.00,0.00
2014-09-13 07:10:00,2,49959,0,0.00,2,2,0,2,49591,50000,123,50000,0,0,0,0,0.00,0.00,0.00,0.00
2014-09-13 07:20:00,2,50000,0,0.00,2,2,0,2,50000,50000,0,50000,0,0,0,0,0.00,0.00,0.00,0.00
2014-09-13 07:30:00,2,49689,0,0.00,2,2,0,2,46887,50000,934,50000,0,0,0,0,0.00,0.00,0.00,0.00
2014-09-13 07:40:00,2,50000,0,0.00,2,2,0,2,50000,50000,0,50000,0,0,0,0,0.00,0.00,0.00,0.00
2014-09-13 07:50:00,2,50000,0,0.00,2,2,0,2,50000,50000,0,50000,0,0,0,0,0.00,0.00,0.00,0.00
2014-09-13 08:00:00,2,50000,0,0.00,2,2,0,2,50000,50000,0,50000,0,0,0,0,0.00,0.00,0.00,0.00
2014-09-13 08:10:00,2,50000,0,0.00,2,2,0,2,50000,50000,0,50000,0,0,0,0,0.00,0.00,0.00,0.00
2014-09-13 08:20:00,2,50000,0,0.00,2,2,0,2,50000,50000,0,50000,0,0,0,0,0.00,0.00,0.00,0.00
2014-09-13 08:30:00,2,50000,0,0.00,2,2,0,2,50000,50000,0,50000,0,0,0,0,0.00,0.00,0.00,0.00
2014-09-13 08:40:00,2,50000,0,0.00,2,2,0,2,50000,50000,0,50000,0,0,0,0,0.00,0.00,0.00,0.00
2014-09-13 08:50:00,2,50000,0,0.00,2,2,0,2,50000,50000,0,50000,0,0,0,0,0.00,0.00,0.00,0.00
2014-09-13 09:00:00,2,50000,0,0.00,2,2,0,2,50000,50000,0,50000,0,0,0,0,0.00,0.00,0.00,0.00
2014-09-13 09:10:00,2,50000,0,0.00,2,2,0,2,50000,50000,0,50000,0,0,0,0,0.00,0.00,0.00,0.00
2014-09-13 09:20:00,2,50000,0,0.00,2,2,0,2,50000,50000,0,50000,0,0,0,0,0.00,0.00,0.00,0.00
2014-09-13 09:30:00,2,50000,0,0.00,2,2,0,2,50000,50000,0,50000,0,0,0,0,0.00,0.00,0.00,0.00
2014-09-13 09:40:00,2,50000,0,0.00,2,2,0,2,50000,50000,0,50000,0,0,0,0,0.00,0.00,0.00,0.00
2014-09-13 09:50:00,2,50000,0,0.00,2,2,0,2,50000,50000,0,50000,0,0,0,0,0.00,0.00,0.00,0.00
2014-09-13 10:00:00,2,50000,0,0.00,2,2,0,2,50000,50000,0,50000,0,0,0,0,0.00,0.00,0.00,0.00
2014-09-13 10:10:00,2,50000,0,0.00,0,2,1,2,50000,50000,0,50000,0,0,0,0,0.00,0.00,0.00,0.00
2014-09-13 10:20:00,0,50000,0,0.00,0,0,0,0,50000,50000,0,50000,0,0,0,0,0.00,0.00,0.00,0.00
2014-09-13 10:30:00,0,49978,0,0.00,0,0,0,0,49785,50000,64,50000,0,0,0,0,0.00,0.00,0.00,0.00
2014-09-13 10:40:00,0,49919,0,0.00,0,0,0,0,49191,50000,243,50000,0,0,0,0,0.00,0.00,0.00,0.00
2014-09-13 10:50:00,0,45832,0,0.00,0,0,0,0,17365,50000,9865,50000,0,0,0,0,0.00,0.00,0.00,0.00
2014-09-13 11:00:00,0,49994,0,0.00,0,0,0,0,49943,50000,17,50000,0,0,0,0,0.00,0.00,0.00,0.00
2014-09-13 11:10:00,0,50000,0,0.00,0,0,0,0,50000,50000,0,50000,0,0,0,0,0.00,0.00,0.00,0.00
2014-09-13 11:20:00,0,50000,0,0.00,0,0,0,0,50000,50000,0,50000,0,0,0,0,0.00,0.00,0.00,0.00
2014-09-13 11:30:00,0,50000,0,0.00,0,0,0,0,50000,50000,0,50000,0,0,0,0,0.00,0.00,0.00,0.00
2014-09-13 11:40:00,0,49593,0,0.00,0,0,0,0,46613,50000,1000,50000,0,0,0,0,0.00,0.00,0.00,0.00
2014-09-13 11:50:00,0,49698,30,0.04,0,2,1,0,47132,50000,857,50000,0,51,20,41,0.00,0.10,0.03,0.05
2014-09-13 12:00:00,2,50000,41,0.04,2,2,0,2,50000,50000,0,50000,0,51,20,51,0.00,0.10,0.03,0.05
2014-09-13 12:10:00,2,50000,0,0.00,2,2,0,2,50000,50000,0,50000,0,0,0,0,0.00,0.00,0.00,0.00
2014-09-13 12:20:00,2,50000,0,0.00,2,2,0,2,50000,50000,0,50000,0,0,0,0,0.00,0.00,0.00,0.00
2014-09-13 12:30:00,2,50000,18,0.01,2,2,0,2,50000,50000,0,50000,0,61,28,0,0.00,0.10,0.03,0.00
2014-09-13 12:40:00,1,49400,45,0.03,0,2,1,0,45098,50000,1471,50000,41,61,7,41,0.00,0.15,0.05,0.00
2014-09-13 12:50:00,1,50000,22,0.03,0,2,1,2,50000,50000,0,50000,0,61,28,0,0.00,0.15,0.06,0.00
2014-09-13 13:00:00,2,48643,52,0.21,2,2,0,2,36426,50000,4072,50000,51,61,3,51,0.00,0.80,0.21,0.15
2014-09-13 13:10:00,2,35676,60,1.83,2,2,0,2,13228,50000,15335,42052,51,61,3,61,0.15,5.35,1.67,1.07
2014-09-13 13:20:00,2,50000,49,0.07,2,2,0,2,50000,50000,0,50000,41,61,7,51,0.00,0.20,0.06,0.05
2014-09-13 13:30:00,2,50000,25,0.01,2,2,0,2,50000,50000,0,50000,0,41,20,41,0.00,0.05,0.02,0.00
2014-09-13 13:40:00,2,49876,0,0.00,2,2,0,2,48755,50000,374,50000,0,0,0,0,0.00,0.00,0.00,0.00
2014-09-13 13:50:00,2,50000,0,0.00,2,2,0,2,50000,50000,0,50000,0,0,0,0,0.00,0.00,0.00,0.00
2014-09-13 14:00:00,0,50000,0,0.00,0,0,0,0,50000,50000,0,50000,0,0,0,0,0.00,0.00,0.00,0.00
2014-09-13 14:10:00,0,50000,0,0.00,0,0,0,0,50000,50000,0,50000,0,0,0,0,0.00,0.00,0.00,0.00
2014-09-13 14:20:00,0,49837,0,0.00,0,0,0,0,48472,50000,456,50000,0,0,0,0,0.00,0.00,0.00,0.00
2014-09-13 14:30:00,0,49766,0,0.00,0,0,0,0,47660,50000,702,50000,0,0,0,0,0.00,0.00,0.00,0.00
2014-09-13 14:40:00,0,49897,0,0.00,0,2,1,0,48972,50000,308,50000,0,0,0,0,0.00,0.00,0.00,0.00
2014-09-13 14:50:00,2,49777,22,0.03,0,2,1,2,48654,50000,458,50000,0,51,23,20,0.00,0.15,0.05,0.00
2014-09-13 15:00:00,2,50000,50,0.04,2,2,0,2,50000,50000,0,50000,41,51,3,51,0.00,0.20,0.06,0.03
2014-09-13 15:10:00,2,50000,49,0.04,2,2,0,2,50000,50000,0,50000,41,61,7,51,0.00,0.10,0.04,0.03
2014-09-13 15:20:00,2,49868,12,0.00,2,2,0,2,48684,50000,395,50000,0,41,19,0,0.00,0.00,0.00,0.00
2014-09-13 15:30:00,2,50000,41,0.03,2,2,0,2,50000,50000,0,50000,41,41,0,41,0.00,0.10,0.03,0.03
2014-09-13 15:40:00,2,50000,51,0.21,2,2,0,2,50000,50000,0,50000,41,61,6,51,0.00,1.20,0.35,0.05
2014-09-13 15:50:00,2,50000,49,0.06,2,2,0,2,50000,50000,0,50000,41,51,4,51,0.00,0.20,0.08,0.03
2014-09-13 16:00:00,2,49088,47,0.07,2,2,0,2,46713,50000,1255,50000,41,61,9,41,0.00,0.40,0.12,0.03
2014-09-13 16:10:00,2,37153,56,2.46,2,2,0,2,17328,50000,13255,40169,51,61,5,56,0.00,7.90,2.69,1.65
2014-09-13 16:20:00,2,49669,56,0.20,2,2,0,2,46689,50000,993,50000,51,61,5,56,0.00,0.75,0.24,0.10
2014-09-13 16:30:00,2,50000,65,0.01,2,2,0,2,50000,50000,0,50000,51,77,12,71,0.00,0.05,0.02,0.00
2014-09-13 16:40:00,2,50000,49,0.09,2,2,0,2,50000,50000,0,50000,41,77,11,46,0.00,0.55,0.17,0.00
2014-09-13 16:50:00,2,49667,60,0.46,2,2,0,2,48209,50000,668,50000,51,61,3,61,0.10,1.05,0.24,0.47
2014-09-13 17:00:00,2,47488,52,0.19,2,2,0,2,41740,50000,2612,47972,51,61,3,51,0.05,0.50,0.16,0.15
2014-09-13 17:10:00,2,38996,51,0.74,2,2,0,2,14325,50000,12830,46954,41,61,6,51,0.00,2.85,0.95,0.17
2014-09-13 17:20:00,2,24008,57,0.90,2,2,0,2,17013,40354,6537,23574,51,61,5,61,0.10,1.85,0.59,0.95
2014-09-13 17:30:00,2,48521,24,0.02,2,2,0,2,39278,50000,3311,50000,0,51,25,20,0.00,0.05,0.02,0.00
2014-09-13 17:40:00,2,46963,0,0.00,2,2,0,2,32533,50000,6160,50000,0,0,0,0,0.00,0.00,0.00,0.00
2014-09-13 17:50:00,2,44436,0,0.00,2,2,0,2,34906,50000,5462,45776,0,0,0,0,0.00,0.00,0.00,0.00
2014-09-13 18:00:00,2,50000,0,0.00,2,2,0,2,50000,50000,0,50000,0,0,0,0,0.00,0.00,0.00,0.00
2014-09-13 18:10:00,2,50000,0,0.00,2,2,0,2,50000,50000,0,50000,0,0,0,0,0.00,0.00,0.00,0.00
2014-09-13 18:20:00,2,49853,0,0.00,2,2,0,2,48553,50000,433,50000,0,0,0,0,0.00,0.00,0.00,0.00
2014-09-13 18:30:00,0,50000,0,0.00,0,2,1,0,50000,50000,0,50000,0,0,0,0,0.00,0.00,0.00,0.00
2014-09-13 18:40:00,2,50000,0,0.00,0,2,1,2,50000,50000,0,50000,0,0,0,0,0.00,0.00,0.00,0.00
2014-09-13 18:50:00,2,50000,0,0.00,2,2,0,2,50000,50000,0,50000,0,0,0,0,0.00,0.00,0.00,0.00
2014-09-13 19:00:00,2,50000,0,0.00,2,2,0,2,50000,50000,0,50000,0,0,0,0,0.00,0.00,0.00,0.00
2014-09-13 19:10:00,2,50000,0,0.00,2,2,0,2,50000,50000,0,50000,0,0,0,0,0.00,0.00,0.00,0.00
2014-09-13 19:20:00,2,50000,0,0.00,2,2,0,2,50000,50000,0,50000,0,0,0,0,0.00,0.00,0.00,0.00
2014-09-13 19:30:00,2,50000,0,0.00,2,2,0,2,50000,50000,0,50000,0,0,0,0,0.00,0.00,0.00,0.00
2014-09-13 19:40:00,2,50000,0,0.00,2,2,0,2,50000,50000,0,50000,0,0,0,0,0.00,0.00,0.00,0.00
2014-09-13 19:50:00,2,50000,0,0.00,2,2,0,2,50000,50000,0,50000,0,0,0,0,0.00,0.00,0.00,0.00
2014-09-13 20:00:00,2,50000,0,0.00,2,2,0,2,50000,50000,0,50000,0,0,0,0,0.00,0.00,0.00,0.00
2014-09-13 20:10:00,2,50000,0,0.00,2,2,0,2,50000,50000,0,50000,0,0,0,0,0.00,0.00,0.00,0.00
2014-09-13 20:20:00,2,50000,0,0.00,2,2,0,2,50000,50000,0,50000,0,0,0,0,0.00,0.00,0.00,0.00
2014-09-13 20:30:00,2,50000,0,0.00,2,2,0,2,50000,50000,0,50000,0,0,0,0,0.00,0.00,0.00,0.00
2014-09-13 20:40:00,2,50000,0,0.00,2,2,0,2,50000,50000,0,50000,0,0,0,0,0.00,0.00,0.00,0.00
2014-09-13 20:50:00,2,50000,0,0.00,2,2,0,2,50000,50000,0,50000,0,0,0,0,0.00,0.00,0.00,0.00
2014-09-13 21:00:00,2,50000,0,0.00,2,2,0,2,50000,50000,0,50000,0,0,0,0,0.00,0.00,0.00,0.00
2014-09-13 21:10:00,2,50000,0,0.00,2,2,0,2,50000,50000,0,50000,0,0,0,0,0.00,0.00,0.00,0.00
2014-09-13 21:20:00,2,50000,0,0.00,2,2,0,2,50000,50000,0,50000,0,0,0,0,0.00,0.00,0.00,0.00
2014-09-13 21:30:00,2,50000,0,0.00,2,2,0,2,50000,50000,0,50000,0,0,0,0,0.00,0.00,0.00,0.00
2014-09-13 21:40:00,2,50000,0,0.00,2,2,0,2,50000,50000,0,50000,0,0,0,0,0.00,0.00,0.00,0.00
2014-09-13 21:50:00,2,50000,0,0.00,2,2,0,2,50000,50000,0,50000,0,0,0,0,0.00,0.00,0.00,0.00
2014-09-13 22:00:00,2,49721,0,0.00,2,2,0,2,48226,50000,550,50000,0,0,0,0,0.00,0.00,0.00,0.00
2014-09-13 22:10:00,2,49010,0,0.00,2,2,0,2,46228,50000,1284,49730,0,0,0,0,0.00,0.00,0.00,0.00
2014-09-13 22:20:00,2,50000,0,0.00,2,2,0,2,50000,50000,0,50000,0,0,0,0,0.00,0.00,0.00,0.00
2014-09-13 22:30:00,2,50000,0,0.00,2,2,0,2,50000,50000,0,50000,0,0,0,0,0.00,0.00,0.00,0.00
2014-09-13 22:40:00,2,48910,0,0.00,2,2,0,2,41899,50000,2404,50000,0,0,0,0,0.00,0.00,0.00,0.00
2014-09-13 22:50:00,2,48914,0,0.00,2,2,0,2,42532,50000,2356,50000,0,0,0,0,0.00,0.00,0.00,0.00
2014-09-13 23:00:00,2,48974,0,0.00,2,2,0,2,41826,50000,2463,50000,0,0,0,0,0.00,0.00,0.00,0.00
2014-09-13 23:10:00,2,48405,0,0.00,2,2,0,2,39185,50000,3185,49780,0,0,0,0,0.00,0.00,0.00,0.00
2014-09-13 23:20:00,2,49108,0,0.00,2,2,0,2,46443,50000,1398,50000,0,0,0,0,0.00,0.00,0.00,0.00
2014-09-13 23:30:00,2,47935,0,0.00,2,2,0,2,42753,50000,2771,50000,0,0,0,0,0.00,0.00,0.00,0.00
2014-09-13 23:40:00,1,48931,0,0.00,0,2,1,2,45546,50000,1691,49783,0,0,0,0,0.00,0.00,0.00,0.00
2014-09-13 23:50:00,2,40733,0,0.00,2,2,0,2,32410,50000,6029,39807,0,0,0,0,0.00,0.00,0.00,0.00
